Location: New Plymouth
(39.0670°S, 174.0830°E)
Time: 12:26:35
(UTC+13:00)

Meteor 2-21 - Pass Details

Date: 24 January 2019
Orbit: 933 x 967 km, 82.5° (Epoch: 19 February)

Event Time Altitude Azimuth Distance (km) Brightness Sun altitude
Exits shadow 23:43:30 57° 76° (ENE) 1,098 4.5 -26.1°
Maximum altitude 23:43:46 58° 87° (E) 1,093 4.5 -26.1°
Drops below altitude 10° 23:49:44 10° 164° (SSE) 2,676 7.3 -26.7°
Sets 23:52:16 0° 168° (SSE) 3,629 8.2 -26.9°
